Location: Les Coudrans
(46.1056°N, 1.1158°W)
Time: 14:58:59
(UTC+00:00)

Cosmos 2219 Rocket - Pass Details

Date: 03 March 2021
Orbit: 826 x 848 km, 71.0° (Epoch: 19 April)

Event Time Altitude Azimuth Distance (km) Brightness Sun altitude
Rises 21:06:17 0° 229° (SW) 3,357 5.5 -33.1°
Reaches altitude 10° 21:08:52 10° 237° (WSW) 2,429 4.8 -33.5°
Maximum altitude 21:14:03 39° 305° (NW) 1,229 3.4 -34.3°
Drops below altitude 10° 21:19:19 10° 14° (NNE) 2,453 4.8 -35.1°
Sets 21:21:56 0° 23° (NNE) 3,395 5.5 -35.5°
